Weather History for Iliamna, AK

Change the Weather History Date:

Monday, November 5, 2012

  Actual Average Record
Temperature  
Mean Temperature 14 °F -  
Max Temperature 18 °F 35 °F 48 °F (1991)
Min Temperature 9 °F 23 °F -4 °F (1956)
Degree Days  
Heating Degree Days 52    
Moisture  
Dew Point 1 °F    
Average Humidity 56    
Maximum Humidity 67    
Minimum Humidity 32    
Precipitation  
Precipitation 0.00 in - - ()
Sea Level Pressure  
Sea Level Pressure 29.75 in    
Wind  
Wind Speed 8 mph (NNW)    
Max Wind Speed 15 mph    
Max Gust Speed 20 mph    
Visibility 10 miles    
Events      
Averages and records for this station are not official NWS values.
T = Trace of Precipitation, MM = Missing Value Source: NWS Daily Summary

Daily Weather History Graph

Daily Weather History Graph

Search for Another Location

Airport:

Trip Planner

Search our weather history database for the weather conditions in past years. The results will help you decide how hot, cold, wet, or windy it might be!

Date:

Astronomy

Nov. 05, 2012 Rise Set
Actual Time 8:52 AM AKST 5:12 PM AKST
Civil Twilight 8:06 AM AKST 5:58 PM AKST
Nautical Twilight 7:17 AM AKST 6:48 PM AKST
Astronomical Twilight 6:29 AM AKST 7:36 PM AKST
Moon 11:06 PM AKST (11/5) 2:18 PM AKST (11/5)
Length of Visible Light 9h 51m
Length of Day
8h 19m
Waning Gibbous, 61% of the Moon is Illuminated
Nov 5
Waning Gibbous
Nov 6
Last Quarter
Nov 13
New
Nov 20
First Quarter
Nov 28
Full

Hourly Weather History & Observations

Time (AKST) Temp. Windchill Dew Point Humidity Pressure Visibility Wind Dir Wind Speed Gust Speed Precip Events Conditions
12:53 AM 10.9 °F 2.9 °F 1.9 °F 67% 29.61 in 10.0 mi NW 4.6 mph - N/A   Clear
1:53 AM 10.9 °F -0.8 °F 1.9 °F 67% 29.62 in 10.0 mi NNW 8.1 mph - N/A   Clear
3:53 AM 12.9 °F 3.8 °F 3.9 °F 67% 29.65 in 10.0 mi NW 5.8 mph - N/A   Overcast
4:53 AM 15.1 °F 1.8 °F 3.0 °F 59% 29.65 in 10.0 mi North 11.5 mph - N/A   Overcast
5:53 AM 16.0 °F 4.4 °F 3.9 °F 59% 29.67 in 10.0 mi North 9.2 mph - N/A   Overcast
6:53 AM 16.0 °F 7.4 °F 3.9 °F 59% 29.69 in 10.0 mi North 5.8 mph - N/A   Overcast
7:53 AM 16.0 °F 4.4 °F 3.0 °F 57% 29.70 in 10.0 mi NNW 9.2 mph - N/A   Overcast
8:53 AM 12.0 °F 1.5 °F 1.9 °F 64% 29.71 in 10.0 mi West 6.9 mph - N/A   Mostly Cloudy
9:53 AM 12.0 °F 0.5 °F 1.0 °F 61% 29.73 in 10.0 mi WNW 8.1 mph - N/A   Mostly Cloudy
10:53 AM 16.0 °F 4.4 °F 1.9 °F 54% 29.74 in 10.0 mi NNW 9.2 mph - N/A   Partly Cloudy
11:53 AM 17.1 °F 3.0 °F 1.9 °F 52% 29.76 in 10.0 mi North 13.8 mph 19.6 mph N/A   Partly Cloudy
12:53 PM 17.1 °F 4.3 °F 1.0 °F 50% 29.77 in 10.0 mi NW 11.5 mph - N/A   Clear
1:53 PM 17.1 °F 2.5 °F 1.0 °F 50% 29.78 in 10.0 mi NNW 15.0 mph - N/A   Clear
2:53 PM 18.0 °F 6.1 °F 1.0 °F 48% 29.78 in 10.0 mi NW 10.4 mph 19.6 mph N/A   Clear
3:53 PM 17.1 °F 4.3 °F -0.0 °F 47% 29.78 in 10.0 mi NNW 11.5 mph - N/A   Clear
4:53 PM 15.1 °F 0.5 °F -0.0 °F 51% 29.79 in 10.0 mi NNW 13.8 mph - N/A   Clear
5:53 PM 12.9 °F 1.6 °F -0.0 °F 56% 29.80 in 10.0 mi NNW 8.1 mph - N/A   Clear
6:53 PM 12.0 °F 0.5 °F -0.0 °F 59% 29.82 in 10.0 mi North 8.1 mph - N/A   Clear
7:53 PM 12.0 °F -1.3 °F -0.9 °F 56% 29.83 in 10.0 mi North 10.4 mph - N/A   Clear
8:53 PM 12.0 °F 2.7 °F -0.0 °F 59% 29.84 in 10.0 mi NNW 5.8 mph - N/A   Overcast
9:53 PM 14.0 °F 6.5 °F 1.0 °F 56% 29.85 in 10.0 mi Variable 4.6 mph - N/A   Overcast
10:53 PM 15.1 °F 3.3 °F 1.0 °F 54% 29.87 in 10.0 mi NW 9.2 mph - N/A   Overcast
11:53 PM 10.9 °F -1.8 °F 1.0 °F 64% 29.90 in 10.0 mi WNW 9.2 mph - N/A   Mostly Cloudy